Change the Weather History Date:

Friday, April 25, 2014

  Actual Average Record
Temperature  
Mean Temperature 63 °F 62 °F  
Max Temperature 72 °F 73 °F 89 °F (1960)
Min Temperature 53 °F 50 °F 33 °F (1910)
Degree Days  
Heating Degree Days 2 5  
Month to date heating degree days 154 197  
Since 1 July heating degree days 3734 3554  
Cooling Degree Days 0 1  
Month to date cooling degree days 14 23  
Year to date cooling degree days 14 28  
Growing Degree Days 14 (Base 50)    
Moisture  
Dew Point 52 °F    
Average Humidity 64    
Maximum Humidity 84    
Minimum Humidity 44    
Precipitation  
Precipitation 0.02 in 0.14 in 2.64 in (1932)
Month to date precipitation 2.72 3.32  
Year to date precipitation 13.21 16.24  
Snow  
Snow 0.00 in 0.00 in - ()
Month to date snowfall T 0.5  
Since 1 July snowfall 12.4 6.5  
Snow Depth 0.00 in    
Sea Level Pressure  
Sea Level Pressure 29.82 in    
Wind  
Wind Speed 11 mph (SW)    
Max Wind Speed 29 mph    
Max Gust Speed 39 mph    
Visibility 10 miles    
Events Rain    
T = Trace of Precipitation, MM = Missing Value Source: NWS Daily Summary

Daily Weather History Graph

Daily Weather History Graph

Search for Another Location

Airport or City:

Trip Planner

Search our weather history database for the weather conditions in past years. The results will help you decide how hot, cold, wet, or windy it might be!

Date:

Astronomy

Apr. 25, 2014 Rise Set
Actual Time 6:50 AM EDT 8:17 PM EDT
Civil Twilight 6:23 AM EDT 8:44 PM EDT
Nautical Twilight 5:51 AM EDT 9:17 PM EDT
Astronomical Twilight 5:17 AM EDT 9:51 PM EDT
Moon 4:30 AM EDT (4/25) 4:46 PM EDT (4/25)
Length of Visible Light 14h 21m
Length of Day
13h 27m
Waning Crescent, 15% of the Moon is Illuminated
Apr 25
Waning Crescent
Apr 29
New
May 6
First Quarter
May 14
Full
May 21
Last Quarter

Hourly Weather History & Observations

Time (EDT) Temp. Dew Point Humidity Pressure Visibility Wind Dir Wind Speed Gust Speed Precip Events Conditions
1:53 AM 66.9 °F 44.1 °F 44% 29.80 in 10.0 mi South 6.9 mph - N/A   Overcast
2:53 AM 66.0 °F 45.0 °F 47% 29.76 in 10.0 mi SSW 5.8 mph - N/A   Overcast
3:53 AM 69.1 °F 46.0 °F 44% 29.73 in 10.0 mi South 11.5 mph - N/A   Overcast
4:53 AM 66.9 °F 46.9 °F 49% 29.74 in 10.0 mi SSW 9.2 mph - N/A   Overcast
5:53 AM 66.0 °F 48.9 °F 54% 29.73 in 10.0 mi South 8.1 mph - N/A   Overcast
6:53 AM 66.0 °F 51.1 °F 59% 29.73 in 10.0 mi South 12.7 mph - N/A   Overcast
7:53 AM 66.0 °F 55.0 °F 68% 29.74 in 10.0 mi SSW 15.0 mph - N/A   Scattered Clouds
8:53 AM 64.9 °F 57.0 °F 75% 29.75 in 9.0 mi SSW 20.7 mph 28.8 mph 0.01 in Rain Light Rain
9:53 AM 66.9 °F 57.9 °F 73% 29.75 in 10.0 mi SW 20.7 mph 33.4 mph 0.00 in   Mostly Cloudy
10:29 AM 66.9 °F 57.9 °F 73% 29.79 in 10.0 mi SW 18.4 mph 28.8 mph N/A   Mostly Cloudy
10:46 AM 69.1 °F 59.0 °F 70% 29.79 in 10.0 mi WSW 18.4 mph 28.8 mph N/A   Mostly Cloudy
10:53 AM 69.1 °F 57.9 °F 68% 29.77 in 10.0 mi SW 17.3 mph 29.9 mph N/A   Mostly Cloudy
11:53 AM 69.1 °F 55.9 °F 63% 29.78 in 10.0 mi WSW 18.4 mph 27.6 mph N/A   Mostly Cloudy
12:14 PM 61.0 °F 55.9 °F 83% 29.83 in 5.0 mi West 23.0 mph 38.0 mph 0.00 in Rain Light Rain
12:53 PM 62.1 °F 57.0 °F 84% 29.83 in 10.0 mi WSW 12.7 mph - 0.01 in   Mostly Cloudy
1:53 PM 70.0 °F 55.9 °F 61% 29.84 in 10.0 mi WSW 18.4 mph 28.8 mph N/A   Mostly Cloudy
2:53 PM 69.1 °F 53.1 °F 57% 29.87 in 10.0 mi West 21.9 mph 31.1 mph N/A   Mostly Cloudy
3:53 PM 69.1 °F 53.1 °F 57% 29.88 in 10.0 mi West 16.1 mph - N/A   Mostly Cloudy
4:53 PM 70.0 °F 53.1 °F 55% 29.88 in 10.0 mi West 12.7 mph - N/A   Mostly Cloudy
5:53 PM 70.0 °F 52.0 °F 53% 29.88 in 10.0 mi West 12.7 mph - N/A   Mostly Cloudy
6:53 PM 69.1 °F 51.1 °F 53% 29.90 in 10.0 mi West 10.4 mph - N/A   Scattered Clouds
8:53 PM 63.0 °F 46.9 °F 56% 29.93 in 10.0 mi West 5.8 mph - N/A   Partly Cloudy
9:53 PM 60.1 °F 46.0 °F 60% 29.96 in 10.0 mi NW 5.8 mph - N/A   Partly Cloudy
10:53 PM 57.9 °F 46.9 °F 67% 29.97 in 10.0 mi Calm Calm - N/A   Clear
11:53 PM 55.0 °F 46.9 °F 74% 29.97 in 10.0 mi South 3.5 mph - N/A   Clear